Location: ??????
(38.0131°N, 23.7723°E)
Time: 06:17:36
(UTC+00:00)

Cosmos 1821 Rocket - Pass Details

Date: 17 October 2021
Orbit: 944 x 1005 km, 82.9° (Epoch: 28 November)

Event Time Altitude Azimuth Distance (km) Brightness Sun altitude
Rises 16:01:25 0° 166° (SSE) 3,713 7.0 -4.1°
Reaches altitude 10° 16:04:03 10° 159° (SSE) 2,770 6.3 -4.6°
Maximum altitude 16:10:02 44° 90° (E) 1,357 4.4 -5.8°
Drops below altitude 10° 16:16:01 10° 20° (NNE) 2,780 6.1 -7.0°
Sets 16:18:39 0° 15° (NNE) 3,728 6.8 -7.5°
